[[{"header":{"parameterUnit":"m.s-1","parameterCategory":1,"la1":30.2991,"la2":30.254,"lo1":-89.0895,"lo2":-89.0444,"dy":0.0017,"dx":0.0017,"nx":28,"ny":28,"refTime":"2023-11-21T03:00:00:Z","depth":0,"parameterNumber":2,"parameterNumberName":"U-component_of_WINDS"},"data":[0,0,0,0,0,0,0,0,0,0,0,0,0,0,0,0,0,0,0,0,0,0,0,0,0,0,0,0,0,0,0,0,0,0,0,0,0,0,0,0,0,0,0,0,0,0,0,0,0,0,0,0,0,0,0,0,0,0,-3.9498,-3.9499,0,-3.9589,-3.959,-3.9591,-3.96,-3.9599,-3.9598,-3.9597,-3.9689,-3.9692,-3.9695,0,0,0,0,0,0,0,0,0,0,0,0,0,-3.9332,-3.9335,-3.9498,-3.9499,-3.95,-3.9589,-3.959,-3.9591,-3.96,-3.9599,-3.9597,-3.9596,-3.9688,-3.9692,-3.9696,0,0,0,0,0,0,0,0,0,0,0,0,0,-3.9411,-3.9336,-3.9498,-3.9515,-3.9518,-3.9589,-3.959,-3.9592,-3.96,-3.9599,-3.9597,-3.9596,-3.9686,-3.9691,-3.9696,-3.9756,0,0,-3.9711,-3.9714,0,0,0,0,0,0,0,0,-3.9407,-3.9418,-3.9511,-3.9514,-3.9517,-3.9581,-3.9565,-3.9647,-3.96,-3.9569,-3.9597,-3.9595,-3.9654,-3.9662,-3.9682,-3.976,-3.9764,-3.9712,-3.9715,-3.9717,-3.9719,0,0,0,0,0,0,0,-3.9401,-3.9414,-3.9534,-3.9513,-3.9516,-3.9518,-3.9528,-3.9581,-3.9618,-3.9571,-3.9572,-3.9583,-3.9655,-3.9677,-3.9684,-3.9765,-3.9712,-3.9716,-3.9719,-3.9721,-3.9898,-3.9899,0,0,0,0,0,0,-3.9393,-3.9409,-3.9531,-3.9537,-3.9457,-3.9523,-3.9534,-3.9562,-3.9618,-3.9625,-3.9584,-3.9583,-3.9669,-3.9678,-3.9687,-3.9761,-3.9717,-3.9722,-3.9725,-3.9896,-3.9898,-3.99,0,0,0,0,0,0,-3.9389,-3.9403,-3.9527,-3.9473,-3.9489,-3.9527,-3.9559,-3.9565,-3.9586,-3.9627,-3.9634,-3.9599,-3.9668,-3.968,-3.9739,-3.9764,-3.9724,-3.9729,-3.9894,-3.9897,-3.9899,-3.9908,0,0,0,0,0,0,-3.9384,-3.9402,-3.9425,-3.9474,-3.9492,-3.9577,-3.9561,-3.9568,-3.9595,-3.9595,-3.9643,-3.965,-3.9668,-3.9731,-3.9744,-3.977,-3.9732,-3.9892,-3.9895,-3.9898,-3.9905,-3.991,-3.9914,0,0,0,0,0,-3.9378,-3.9423,-3.9426,-3.9441,-3.9521,-3.9579,-3.9589,-3.9609,-3.9597,-3.962,-3.9647,-3.9648,-3.976,-3.9737,-3.9751,-3.978,-3.989,-3.9894,-3.9898,-3.9903,-3.9909,-3.9914,0,0,0,0,0,0,-3.9376,-3.943,-3.9433,-3.9496,-3.9533,-3.958,-3.961,-3.9615,-3.9656,-3.9653,-3.9677,-3.9688,-3.9745,-3.9769,-3.9743,-3.9841,-3.9824,-3.9831,-3.9823,-3.9829,-3.9833,-3.9826,-3.9737,0,0,0,0,0,-3.9383,-3.9425,-3.947,-3.952,-3.9539,-3.9571,-3.9597,-3.961,-3.9649,-3.9664,-3.9695,-3.9733,-3.9776,-3.9804,-3.9846,-3.9909,-3.992,-3.9936,-3.994,-3.9944,-3.9949,-3.9984,-3.9992,-3.9912,-3.9912,-3.9912,0,0,-3.9397,-3.9432,-3.9457,-3.9521,-3.9551,-3.9594,-3.9584,-3.963,-3.9662,-3.9671,-3.9728,-3.9752,-3.9796,-3.9857,-3.9886,-3.9878,-3.9974,-3.9949,-3.9951,-3.9954,-3.9989,-3.9996,-4.0003,-3.9915,-3.9914,-3.9914,0,0,-3.9444,-3.9475,-3.9521,-3.9551,-3.9597,-3.9619,-3.963,-3.9677,-3.9694,-3.9752,-3.976,-3.9799,-3.9873,-3.9904,-3.9929,-3.9991,-3.9994,-4.0004,-4.0027,-4.0061,-4.0067,-4.0073,-4.0095,-4.0102,-4.0009,-4.0009,-4.0009,0,-3.9456,-3.9521,-3.9543,-3.9589,-3.9617,-3.9629,-3.9675,-3.9704,-3.9761,-3.978,-3.9772,-3.9866,-3.9896,-3.9965,-3.998,-4.0,-4.0014,-3.9998,-4.0065,-4.0071,-4.0076,-4.0097,-4.0105,-4.001,-4.001,-4.001,-4.001,0,-3.9533,-3.9578,-3.9609,-3.9665,-3.9697,-3.9743,-3.9772,-3.9802,-3.9813,-3.9835,-3.9895,-3.9932,-3.9982,-4.0,-4.001,-4.007,-4.0064,-4.006,-4.0043,-4.0084,-4.0104,-4.0112,-4.0012,-4.0011,-4.0011,-4.0011,0,0,-3.9579,-3.9648,-3.9659,-3.9684,-3.9737,-3.9772,-3.982,-3.9869,-3.9894,-3.9934,-3.9974,-4.0038,-4.0035,-4.0063,-4.0078,-4.0108,-4.0154,-4.0101,-4.0102,-4.0108,-4.0223,-4.0224,-4.0233,-4.0158,-4.0159,-4.016,-4.0219,0,-3.9632,-3.9715,-3.9737,-3.9808,-3.9851,-3.9863,-3.9904,-3.9941,-3.9964,-4.0003,-4.0029,-4.0073,-4.0066,-4.0084,-4.0115,-4.0142,-4.0177,-4.0138,-4.0194,-4.0196,-4.0181,-4.0243,-4.0245,-4.0298,-4.0227,-4.0228,-4.0229,0,-3.9704,-3.9745,-3.9821,-3.9869,-3.9887,-3.9924,-3.9971,-4.0009,-4.0052,-4.0066,-4.01,-4.0112,-4.0161,-4.0144,-4.0213,-4.0186,-4.021,-4.0228,-4.023,-4.0235,-4.0213,-4.0248,-4.0315,-4.0323,-4.0241,-4.024,-4.0239,0,-3.9729,-3.9804,-3.9859,-3.9881,-3.9938,-3.9964,-3.9989,-4.003,-4.0059,-4.0101,-4.012,-4.0167,-4.0193,-4.0229,-4.0254,-4.0239,-4.0321,-4.0305,-4.0334,-4.0333,-4.0349,-4.0347,-4.0419,-4.0367,-4.0367,-4.0367,-4.0367,0,-3.9784,-3.983,-3.9871,-3.9905,-3.9956,-3.9982,-4.0032,-4.0058,-4.0095,-4.0134,-4.0148,-4.0184,-4.0215,-4.0256,-4.0276,-4.033,-4.0342,-4.0355,-4.0359,-4.0353,-4.0351,-4.0368,-4.0364,-4.0369,-4.0369,-4.0368,-4.0368,0,-3.982,-3.985,-3.991,-3.9961,-3.9974,-4.001,-4.0053,-4.0086,-4.0111,-4.016,-4.0173,-4.0211,-4.0259,-4.0288,-4.035,-4.0363,-4.0423,-4.0426,-4.0408,-4.041,-4.0437,-4.0433,-4.0521,-4.0534,-4.0474,-4.0475,-4.0475,0,-3.9853,-3.9888,-3.9943,-3.997,-3.9995,-4.0039,-4.0069,-4.0096,-4.0127,-4.0179,-4.0206,-4.0256,-4.0297,-4.0374,-4.0407,-4.0455,-4.0459,-4.0486,-4.0466,-4.0458,-4.0458,-4.0455,-4.0458,-4.0489,-4.0489,-4.049,-4.049,0,-3.9908,-3.9921,-3.9963,-4.0011,-4.0047,-4.0086,-4.0124,-4.0146,-4.018,-4.0214,-4.0264,-4.0296,-4.036,-4.0409,-4.0459,-4.0485,-4.0493,-4.0497,-4.0506,-4.0499,-4.0486,-4.0492,-4.0416,-4.0494,-4.0494,-4.0493,-4.0493,-4.0493,-3.9943,-3.9975,-4.0018,-4.0065,-4.0097,-4.0134,-4.0167,-4.0197,-4.0239,-4.0293,-4.0307,-4.0359,-4.0402,-4.0471,-4.0499,-4.054,-4.0536,-4.0549,-4.0552,-4.0554,-4.0555,-4.0481,-4.055,-4.055,-4.055,-4.055,-4.055,0,-3.9997,-4.0026,-4.0069,-4.0123,-4.0161,-4.0166,-4.021,-4.024,-4.0287,-4.0326,-4.0367,-4.0425,-4.0473,-4.0511,-4.056,-4.0586,-4.0591,-4.0598,-4.0596,-4.0602,-4.0556,-4.0543,-4.0594,-4.0594,-4.0594,-4.0594,-4.0593,-4.0593,-4.003,-4.0085,-4.0103,-4.0174,-4.0203,-4.0255,-4.0279,-4.0313,-4.0345,-4.0409,-4.0449,-4.0474,-4.0513,-4.0565,-4.061,-4.062,-4.0637,-4.0643,-4.0654,-4.061,-4.0605,-4.06,-4.0588,-4.0647,-4.0647,-4.0696,-4.0696,-4.0696]},{"header":{"parameterUnit":"m.s-1","parameterCategory":1,"la1":30.2991,"la2":30.254,"lo1":-89.0895,"lo2":-89.0444,"dy":0.0017,"dx":0.0017,"nx":28,"ny":28,"refTime":"2023-11-21T03:00:00:Z","depth":0,"parameterNumber":3,"parameterNumberName":"V-component_of_WINDS"},"data":[0,0,0,0,0,0,0,0,0,0,0,0,0,0,0,0,0,0,0,0,0,0,0,0,0,0,0,0,0,0,0,0,0,0,0,0,0,0,0,0,0,0,0,0,0,0,0,0,0,0,0,0,0,0,0,0,0,0,4.1693,4.1693,0,4.1726,4.1727,4.1727,4.1728,4.1728,4.1728,4.1727,4.176,4.1761,4.1763,0,0,0,0,0,0,0,0,0,0,0,0,0,4.1633,4.1634,4.1693,4.1693,4.1694,4.1726,4.1727,4.1727,4.1729,4.1728,4.1728,4.1727,4.176,4.1761,4.1763,0,0,0,0,0,0,0,0,0,0,0,0,0,4.1662,4.1634,4.1693,4.1698,4.1699,4.1726,4.1727,4.1727,4.1729,4.1728,4.1727,4.1727,4.1759,4.1761,4.1763,4.1786,0,0,4.1769,4.1769,0,0,0,0,0,0,0,0,4.166,4.1664,4.1697,4.1698,4.1699,4.1723,4.1718,4.1747,4.1729,4.1717,4.1727,4.1727,4.1748,4.1751,4.1758,4.1788,4.1789,4.1769,4.177,4.1771,4.1771,0,0,0,0,0,0,0,4.1658,4.1662,4.1706,4.1698,4.1699,4.17,4.1703,4.1723,4.1736,4.1718,4.1719,4.1723,4.1748,4.1757,4.1759,4.179,4.1769,4.177,4.1771,4.1772,4.1846,4.1846,0,0,0,0,0,0,4.1655,4.1661,4.1705,4.1707,4.1678,4.1702,4.1705,4.1716,4.1735,4.1738,4.1723,4.1723,4.1754,4.1757,4.176,4.1792,4.1771,4.1772,4.1773,4.1845,4.1846,4.1847,0,0,0,0,0,0,4.1653,4.1659,4.1704,4.1684,4.169,4.1703,4.1715,4.1717,4.1725,4.1739,4.1741,4.1729,4.1753,4.1758,4.1781,4.1793,4.1773,4.1775,4.1844,4.1845,4.1846,4.1854,0,0,0,0,0,0,4.1652,4.1658,4.1666,4.1684,4.1691,4.1723,4.1715,4.1718,4.1728,4.1728,4.1745,4.1747,4.1753,4.1778,4.1783,4.1796,4.1776,4.1843,4.1844,4.1846,4.1853,4.1856,4.1858,0,0,0,0,0,4.165,4.1666,4.1667,4.1672,4.1701,4.1724,4.1728,4.1734,4.1729,4.1738,4.1748,4.1747,4.1791,4.1781,4.1786,4.1799,4.1842,4.1844,4.1846,4.1852,4.1855,4.1858,0,0,0,0,0,0,4.1647,4.1668,4.1669,4.1691,4.1706,4.1724,4.1735,4.1737,4.1753,4.1752,4.1759,4.1763,4.1787,4.1795,4.1783,4.1826,4.1816,4.1819,4.1819,4.1822,4.1825,4.1823,4.1778,0,0,0,0,0,4.1649,4.1665,4.1683,4.1701,4.1709,4.1721,4.1731,4.1736,4.1751,4.1756,4.1768,4.1783,4.1801,4.1812,4.1829,4.1855,4.186,4.1867,4.1869,4.1871,4.1874,4.1893,4.1897,4.1853,4.1853,4.1853,0,0,4.1653,4.1667,4.1676,4.1701,4.1713,4.1731,4.1726,4.1744,4.1758,4.1759,4.1783,4.1792,4.181,4.1836,4.1848,4.1843,4.1888,4.1874,4.1875,4.1877,4.1895,4.1899,4.1903,4.1854,4.1854,4.1854,0,0,4.167,4.1681,4.17,4.1713,4.1732,4.1741,4.1746,4.1765,4.1772,4.1796,4.1799,4.1816,4.1845,4.1859,4.187,4.1899,4.1899,4.1904,4.1917,4.1935,4.1938,4.1942,4.1955,4.1959,4.1906,4.1906,4.1906,0,4.1673,4.17,4.1709,4.1729,4.1741,4.1745,4.1766,4.1778,4.1801,4.181,4.1805,4.1846,4.1857,4.1889,4.1896,4.1904,4.1912,4.1901,4.1937,4.1941,4.1944,4.1956,4.1961,4.1907,4.1907,4.1907,4.1907,0,4.1704,4.1723,4.1736,4.1761,4.1775,4.1794,4.1808,4.1821,4.1826,4.1836,4.1863,4.1878,4.19,4.1908,4.1911,4.1942,4.1939,4.1936,4.1926,4.1948,4.1961,4.1965,4.1908,4.1908,4.1907,4.1907,0,0,4.1716,4.175,4.1755,4.1769,4.1792,4.1808,4.183,4.1853,4.1866,4.1883,4.1903,4.193,4.1929,4.1942,4.1947,4.1963,4.199,4.1959,4.1959,4.1966,4.2028,4.2031,4.2036,4.1991,4.1991,4.1992,4.2027,0,4.1738,4.1777,4.1788,4.1821,4.1841,4.1849,4.1868,4.1886,4.1897,4.1917,4.1929,4.195,4.1945,4.1953,4.1969,4.1983,4.2002,4.198,4.2011,4.2012,4.2007,4.2042,4.2044,4.2076,4.2032,4.2032,4.2033,0,4.1766,4.1788,4.1823,4.185,4.1859,4.1876,4.1901,4.1919,4.1941,4.1948,4.1965,4.1971,4.1996,4.1986,4.2023,4.2008,4.2021,4.2031,4.2032,4.2035,4.2024,4.2048,4.2086,4.2092,4.204,4.2039,4.2039,0,4.1775,4.1812,4.184,4.1851,4.1881,4.1894,4.1908,4.1929,4.1944,4.1966,4.1977,4.2001,4.2014,4.2034,4.2047,4.2038,4.2084,4.2074,4.2093,4.2092,4.2101,4.2101,4.2144,4.2108,4.2108,4.2108,4.2108,0,4.1798,4.182,4.1845,4.1862,4.1889,4.1903,4.1929,4.1943,4.1963,4.1984,4.1991,4.2011,4.2027,4.205,4.206,4.2091,4.2096,4.2105,4.2107,4.2105,4.2104,4.2114,4.2112,4.2109,4.2109,4.2109,4.2108,0,4.1811,4.1828,4.186,4.1888,4.1896,4.1915,4.1939,4.1957,4.1971,4.1998,4.2005,4.2027,4.2054,4.207,4.2103,4.2111,4.2146,4.2147,4.2139,4.2141,4.2159,4.2158,4.2211,4.222,4.2177,4.2177,4.2177,0,4.1825,4.1843,4.1875,4.1891,4.1905,4.1929,4.1946,4.1962,4.1979,4.2009,4.2024,4.2053,4.2077,4.2121,4.214,4.2167,4.217,4.2187,4.2174,4.2172,4.2173,4.2172,4.2176,4.2189,4.2189,4.2189,4.219,0,4.1848,4.1858,4.1881,4.191,4.1931,4.1953,4.1976,4.1988,4.2009,4.2028,4.2058,4.2077,4.2114,4.2144,4.2174,4.2189,4.2194,4.2194,4.22,4.2198,4.2194,4.2199,4.2147,4.2192,4.2192,4.2192,4.2192,4.2192,4.1863,4.1882,4.1909,4.1936,4.1956,4.1979,4.1999,4.2017,4.2042,4.2074,4.2083,4.2115,4.2142,4.2183,4.2199,4.2226,4.2223,4.223,4.2233,4.2235,4.2237,4.219,4.2231,4.2231,4.2231,4.2231,4.2231,0,4.1889,4.1908,4.1934,4.1967,4.1991,4.1995,4.2022,4.2041,4.207,4.2095,4.212,4.2156,4.2186,4.221,4.2241,4.2258,4.2262,4.2266,4.2265,4.2269,4.2236,4.2229,4.2263,4.2263,4.2263,4.2263,4.2263,4.2263,4.1905,4.1937,4.1951,4.1995,4.2014,4.2046,4.2062,4.2084,4.2104,4.2145,4.2171,4.2187,4.2213,4.2247,4.2276,4.2282,4.2294,4.2299,4.2306,4.2274,4.2271,4.2268,4.2261,4.2301,4.2301,4.2337,4.2337,4.2337]}]]